Погода в Багдаде

Ирак     33°17′12″N   44°24′12″E
темп.,
°C
ветер,
м/с
пор.,
м/с
влажн.,
%
обл.,
%
осадки,
мм/ч
давл.,
гПа
погр.,
м
3 марта, ср
ср300:00+17ююв34320 0.0 102040
03:00+16ю23340 0.0 101825
06:00+15ююв23330 0.0 101928
09:00+20ююв34260 0.0 1020241
12:00+24ю33210 0.0 10191779
15:00+25ююз22180 0.0 10162941
18:00+22ю34220 0.0 1016376
21:00+19ююв35250 0.0 101694
4 марта, чт
чт400:00+18юв46260 0.0 101594
03:00+17вюв46300 0.0 101478
06:00+16юв57330 0.0 1015115
09:00+21вюв610260 0.0 1014604
12:00+25юв8101990 0.0 10121249
15:00+26юв10121893 0.0 10081692
18:00+23юв10152563 0.0 1007667
21:00+21юв11193131 0.0 1007648
5 марта, пт
пт500:00+18зюз9123687 0.0 10081212
03:00+15юз584356 0.0 1009443
06:00+14зюз712683 0.0 1011631
09:00+16зсз10146351 0.0 10141343
12:00+20зсз11144453 0.0 10161600
15:00+21сз10122628 0.0 10161739
18:00+19зсз710250 0.0 1018492
21:00+17сз45280 0.0 1020222
6 марта, сб
сб600:00+15зсз23340 0.0 102148
03:00+14зсз34420 0.0 102170
06:00+13сз35460 0.0 102277
09:00+17сз56320 0.0 1024386
12:00+21сз56240 0.0 10231323
15:00+22сз67200 0.0 10201530
18:00+19зсз57270 0.0 1020291
21:00+17сз45330 0.0 1021126
7 марта, вс
вс700:00+16ссз34360 0.0 102065
03:00+14ссз23410 0.0 101830
06:00+13с22430 0.0 101823
09:00+18сз01320 0.0 1019249
12:00+22зюз23220 0.0 10171213
15:00+24зсз23180 0.0 10141606
18:00+20зсз12250 0.0 1014272
21:00+18ссв11290 0.0 101424